Weather History for Luverne, MN

Change the Weather History Date:

Monday, April 28, 2014

  Actual Average (KFSD) Record (KFSD)
Temperature  
Mean Temperature 48 °F 52 °F  
Max Temperature 55 °F 64 °F 98 °F (1910)
Min Temperature 42 °F 40 °F 24 °F (1950)
Degree Days  
Heating Degree Days 16 14  
Month to date heating degree days 536  
Since 1 July heating degree days 7381  
Cooling Degree Days 0 0  
Month to date cooling degree days 0  
Year to date cooling degree days 0  
Moisture  
Dew Point 45 °F    
Average Humidity 90    
Maximum Humidity 94    
Minimum Humidity 82    
Precipitation  
Precipitation 0.06 in 0.10 in 1.33 in (1896)
Month to date precipitation 2.80  
Year to date precipitation 5.72  
Snow  
Snow 0.00 in 0.10 in 10.50 in (1994)
Month to date snowfall 4.5  
Since 1 July snowfall 44.4  
Snow Depth -    
Sea Level Pressure  
Sea Level Pressure 29.42 in    
Wind  
Wind Speed 21 mph (East)    
Max Wind Speed 30 mph    
Max Gust Speed 39 mph    
Visibility 7 miles    
Events Rain , Thunderstorm    
T = Trace of Precipitation, MM = Missing Value Source: NWS Daily Summary

Daily Weather History Graph

Daily Weather History Graph

Search for Another Location

Airport:

Trip Planner

Search our weather history database for the weather conditions in past years. The results will help you decide how hot, cold, wet, or windy it might be!

Date:

Astronomy

Apr. 28, 2014 Rise Set
Actual Time 6:21 AM CDT 8:23 PM CDT
Civil Twilight 5:50 AM CDT 8:55 PM CDT
Nautical Twilight 5:12 AM CDT 9:33 PM CDT
Astronomical Twilight 4:30 AM CDT 10:15 PM CDT
Moon 6:02 AM CDT (4/28) 8:02 PM CDT (4/28)
Length of Visible Light 15h 04m
Length of Day
14h 02m
Waning Crescent, 0% of the Moon is Illuminated
Apr 28
Waning Crescent
Apr 29
New
May 6
First Quarter
May 14
Full
May 21
Last Quarter

Hourly Weather History & Observations

Time (CDT) Temp. Windchill Dew Point Humidity Pressure Visibility Wind Dir Wind Speed Gust Speed Precip Events Conditions
12:13 AM 53.6 °F - 51.8 °F 94% 29.39 in 7.0 mi ESE 21.9 mph 32.2 mph N/A   Overcast
12:35 AM 55.4 °F - 51.8 °F 88% 29.40 in 7.0 mi ESE 23.0 mph 33.4 mph N/A   Overcast
12:55 AM 55.4 °F - 51.8 °F 88% 29.39 in 7.0 mi ESE 24.2 mph 32.2 mph N/A   Overcast
1:15 AM 55.4 °F - 51.8 °F 88% 29.39 in 5.0 mi ESE 24.2 mph 35.7 mph N/A   Overcast
1:35 AM 55.4 °F - 51.8 °F 88% 29.40 in 7.0 mi ESE 21.9 mph 35.7 mph N/A   Overcast
1:55 AM 53.6 °F - 51.8 °F 94% 29.39 in 4.0 mi ESE 27.6 mph 35.7 mph N/A Rain Light Rain
2:15 AM 53.6 °F - 50.0 °F 88% 29.38 in 10.0 mi ESE 25.3 mph 32.2 mph N/A   Overcast
2:35 AM 53.6 °F - 50.0 °F 88% 29.37 in 10.0 mi ESE 25.3 mph 32.2 mph N/A   Overcast
3:15 AM 53.6 °F - 50.0 °F 88% 29.36 in 10.0 mi East 18.4 mph 25.3 mph N/A   Overcast
3:35 AM 53.6 °F - 50.0 °F 88% 29.37 in 10.0 mi East 18.4 mph 26.5 mph N/A   Overcast
3:55 AM 53.6 °F - 50.0 °F 88% 29.37 in 10.0 mi East 19.6 mph 27.6 mph N/A   Overcast
4:15 AM 53.6 °F - 50.0 °F 88% 29.37 in 10.0 mi ESE 15.0 mph 27.6 mph N/A   Overcast
4:35 AM 53.6 °F - 48.2 °F 82% 29.37 in 10.0 mi ESE 23.0 mph 33.4 mph N/A   Overcast
4:55 AM 51.8 °F - 46.4 °F 82% 29.37 in 10.0 mi ESE 25.3 mph 33.4 mph N/A   Overcast
5:15 AM 51.8 °F - 46.4 °F 82% 29.37 in 10.0 mi East 20.7 mph 32.2 mph N/A   Overcast
5:35 AM 50.0 °F - 46.4 °F 87% 29.36 in 10.0 mi East 20.7 mph 28.8 mph N/A   Overcast
5:55 AM 50.0 °F - 46.4 °F 87% 29.37 in 7.0 mi East 13.8 mph 28.8 mph N/A   Overcast
6:15 AM 50.0 °F - 46.4 °F 87% 29.37 in 5.0 mi East 13.8 mph 20.7 mph N/A   Overcast
6:35 AM 48.2 °F - 46.4 °F 93% 29.38 in 2.5 mi East 16.1 mph 25.3 mph N/A   Overcast
6:55 AM 50.0 °F - 46.4 °F 87% 29.39 in 3.0 mi East 16.1 mph 23.0 mph N/A   Overcast
7:15 AM 50.0 °F - 46.4 °F 87% 29.39 in 1.5 mi East 15.0 mph 25.3 mph N/A   Overcast
7:35 AM 50.0 °F - 46.4 °F 87% 29.40 in 1.2 mi East 18.4 mph - N/A Rain Light Rain
7:55 AM 48.2 °F - 46.4 °F 93% 29.39 in 2.0 mi East 23.0 mph 27.6 mph N/A   Overcast
8:15 AM 48.2 °F - 44.6 °F 87% 29.39 in 3.0 mi East 19.6 mph 25.3 mph N/A   Overcast
8:35 AM 48.2 °F - 44.6 °F 87% 29.39 in 4.0 mi East 18.4 mph 29.9 mph N/A   Overcast
8:55 AM 46.4 °F 39.5 °F 44.6 °F 93% 29.38 in 5.0 mi East 17.3 mph 25.3 mph N/A   Overcast
9:15 AM 46.4 °F 39.5 °F 44.6 °F 93% 29.38 in 3.0 mi East 17.3 mph 28.8 mph N/A   Overcast
9:55 AM 46.4 °F 38.5 °F 44.6 °F 93% 29.37 in 7.0 mi East 21.9 mph 25.3 mph N/A   Overcast
10:15 AM 46.4 °F 38.3 °F 44.6 °F 93% 29.38 in 5.0 mi East 23.0 mph 31.1 mph N/A   Overcast
10:35 AM 46.4 °F 38.1 °F 44.6 °F 93% 29.38 in 5.0 mi East 24.2 mph 31.1 mph N/A   Overcast
10:55 AM 46.4 °F 38.5 °F 44.6 °F 93% 29.37 in 7.0 mi East 21.9 mph 31.1 mph N/A   Overcast
11:15 AM 48.2 °F - 44.6 °F 87% 29.38 in 10.0 mi East 21.9 mph 34.5 mph N/A   Overcast
11:35 AM 48.2 °F - 44.6 °F 87% 29.38 in 10.0 mi East 27.6 mph 39.1 mph N/A   Overcast
11:55 AM 46.4 °F 37.2 °F 44.6 °F 93% 29.39 in 10.0 mi East 29.9 mph 35.7 mph N/A   Overcast
12:15 PM 46.4 °F 38.1 °F 42.8 °F 87% 29.39 in 7.0 mi East 24.2 mph 33.4 mph N/A   Overcast
12:35 PM 46.4 °F 37.7 °F 42.8 °F 87% 29.40 in 7.0 mi East 26.5 mph 34.5 mph N/A   Overcast
12:55 PM 46.4 °F 38.5 °F 42.8 °F 87% 29.40 in 1.8 mi East 21.9 mph 27.6 mph N/A Rain Light Rain
1:15 PM 46.4 °F 38.7 °F 42.8 °F 87% 29.40 in 7.0 mi East 20.7 mph 26.5 mph N/A Rain Light Rain
1:34 PM 46.4 °F 38.5 °F 42.8 °F 87% 29.39 in 5.0 mi East 21.9 mph 28.8 mph N/A   Overcast
1:55 PM 46.4 °F 38.7 °F 42.8 °F 87% 29.39 in 3.0 mi East 20.7 mph 29.9 mph N/A   Overcast
2:15 PM 46.4 °F 38.3 °F 42.8 °F 87% 29.39 in 4.0 mi ENE 23.0 mph 29.9 mph N/A Rain Light Rain
2:55 PM 44.6 °F 36.4 °F 42.8 °F 93% 29.40 in 3.0 mi East 20.7 mph 32.2 mph 0.02 in Rain , Thunderstorm Light Thunderstorms and Rain
3:15 PM 44.6 °F 36.1 °F 42.8 °F 93% 29.41 in 7.0 mi East 21.9 mph 31.1 mph N/A Thunderstorm Overcast
3:34 PM 44.6 °F 35.9 °F 42.8 °F 93% 29.41 in 4.0 mi East 23.0 mph 28.8 mph N/A   Overcast
4:14 PM 44.6 °F 36.1 °F 42.8 °F 93% 29.42 in 3.0 mi ENE 21.9 mph 31.1 mph N/A   Overcast
4:35 PM 44.6 °F 36.1 °F 42.8 °F 93% 29.41 in 5.0 mi East 21.9 mph 31.1 mph N/A Thunderstorm Overcast
4:55 PM 44.6 °F 35.5 °F 42.8 °F 93% 29.43 in 7.0 mi East 25.3 mph 32.2 mph N/A Thunderstorm Overcast
5:15 PM 44.6 °F 36.4 °F 42.8 °F 93% 29.43 in 4.0 mi East 20.7 mph 33.4 mph N/A   Light Drizzle
5:35 PM 44.6 °F 35.5 °F 42.8 °F 93% 29.43 in 7.0 mi East 25.3 mph 31.1 mph N/A   Overcast
5:55 PM 44.6 °F 35.7 °F 42.8 °F 93% 29.44 in 10.0 mi East 24.2 mph 33.4 mph N/A   Overcast
6:15 PM 44.6 °F 36.1 °F 42.8 °F 93% 29.45 in 10.0 mi ENE 21.9 mph 27.6 mph N/A   Overcast
6:35 PM 44.6 °F 36.6 °F 42.8 °F 93% 29.46 in 7.0 mi ENE 19.6 mph 27.6 mph N/A   Overcast
6:55 PM 44.6 °F 36.4 °F 42.8 °F 93% 29.47 in 5.0 mi East 20.7 mph 29.9 mph N/A   Overcast
7:15 PM 44.6 °F 36.9 °F 42.8 °F 93% 29.47 in 1.8 mi ENE 18.4 mph 24.2 mph N/A   Overcast
7:35 PM 44.6 °F 38.1 °F 42.8 °F 93% 29.48 in 4.0 mi ENE 13.8 mph 20.7 mph N/A   Overcast
7:55 PM 44.6 °F 37.4 °F 42.8 °F 93% 29.49 in 10.0 mi ENE 16.1 mph 25.3 mph N/A   Overcast
8:15 PM 44.6 °F 37.4 °F 42.8 °F 93% 29.50 in 10.0 mi ENE 16.1 mph 25.3 mph N/A   Overcast
8:35 PM 44.6 °F 36.4 °F 42.8 °F 93% 29.51 in 10.0 mi ENE 20.7 mph 29.9 mph N/A   Overcast
8:55 PM 44.6 °F 35.9 °F 41.0 °F 87% 29.51 in 10.0 mi ENE 23.0 mph 28.8 mph N/A   Overcast
9:15 PM 44.6 °F 36.1 °F 41.0 °F 87% 29.53 in 10.0 mi ENE 21.9 mph 26.5 mph N/A   Overcast
9:35 PM 44.6 °F 36.4 °F 41.0 °F 87% 29.53 in 10.0 mi ENE 20.7 mph 27.6 mph N/A   Overcast
9:55 PM 44.6 °F 36.4 °F 41.0 °F 87% 29.53 in 10.0 mi ENE 20.7 mph 27.6 mph N/A   Overcast
10:15 PM 44.6 °F 36.6 °F 41.0 °F 87% 29.54 in 10.0 mi ENE 19.6 mph - N/A   Overcast
10:35 PM 44.6 °F 36.4 °F 41.0 °F 87% 29.54 in 10.0 mi ENE 20.7 mph 26.5 mph N/A   Overcast
10:55 PM 44.6 °F 37.2 °F 41.0 °F 87% 29.55 in 7.0 mi ENE 17.3 mph 25.3 mph 0.01 in Rain Light Rain
11:15 PM 42.8 °F 34.8 °F 41.0 °F 93% 29.55 in 10.0 mi ENE 17.3 mph 23.0 mph 0.03 in Rain Light Rain
11:35 PM 42.8 °F 34.8 °F 41.0 °F 93% 29.55 in 7.0 mi NE 17.3 mph 24.2 mph 0.03 in   Overcast
11:55 PM 42.8 °F 34.5 °F 41.0 °F 93% 29.56 in 7.0 mi NE 18.4 mph 23.0 mph 0.03 in Rain Rain